Details From LMML - La Valette Luqa
To HLLM - MITIGA
Flight Number -
Tags decoded
Created
Modified
Stats Distance 201 nm / 373 km
Max Altitude 0 ft / 0 m
Waypoints 4
Social Downloads 1
Likes 0
Share VATSIM

Download

Looking for another format? Having issues loading an existing format? Contact us
Advertisement - Login to hide

Notes

Requested: LMML VARIG NAWRS HLLM

Route

LMML VARIG NAWRS HLLM

ID Type Via Altitude Latitude Longitude Leg Dist Tot Dist Heading (true) Name
O LMML APT - 0 ft / 0 m 35.84948˚ 14.48184˚ - 0 nm - La Valette Luqa
VARIG FIX - 0 ft / 0 m 34.33333˚ 13.67306˚ 99 nm 99 nm 204° / 203° -
NAWRS FIX - 0 ft / 0 m 32.84806˚ 13.52417˚ 89 nm 188 nm 185° / 185° -
O HLLM APT - 0 ft / 0 m 32.89508˚ 13.28242˚ 12 nm 201 nm 283° / 283° MITIGA

Altitude Profile

Advertisement - Login to hide

Weather


0- 5 10 15 20 25 30 35+ Temperature / ° C

Clouds and Precipitation
Forecast for 2017-12-17 06:00 UTC. Updated 40 minutes ago

Ground ~20,000 ft ~40,000 ft Winds

LMML

Details ICAO LMML (MLA)
Name La Valette Luqa
Region Malta
Timezone Europe/Malta (UTC+1.0)
Stats Elevation 300 ft / 91 m (AMSL)
Location 35.849477° 14.481836°
Runways 2
Magnetic Variation 3.021° E

METAR

LMML 170545Z 32011KT 9999 SCT029 12/03 Q1016 NOSIG

Decode

TAF

Not found

Departure Runways

ID Width Length Bearing (true) Bearing (mag) Surface Threshold Offset Overrun Length
14 197 ft / 60 m 11,635 ft / 3,546 m 134.83° 131.81° Asphalt 0 ft / 0 m 420 ft / 128 m
24 148 ft / 45 m 7,789 ft / 2,374 m 234.37° 231.35° Asphalt 410 ft / 125 m 0 ft / 0 m
32 197 ft / 60 m 11,635 ft / 3,546 m 314.85° 311.83° Asphalt 817 ft / 249 m 0 ft / 0 m
6 148 ft / 45 m 7,789 ft / 2,374 m 54.35° 51.33° Asphalt 400 ft / 122 m 0 ft / 0 m

HLLM

Details ICAO HLLM (MJI)
Name MITIGA
Region Libya
Timezone Africa/Tripoli (UTC+2.0)
Stats Elevation 36 ft / 11 m (AMSL)
Location 32.895083° 13.282417°
Runways 2
Magnetic Variation 2.647° E

METAR

HLLM 170550Z 34007KT 6000 SCT018 BKN020 16/11 Q1019

Decode

TAF

Not found

Destination Runways

ID Width Length Bearing (true) Bearing (mag) Surface Threshold Offset Overrun Length
03 148 ft / 45 m 5,966 ft / 1,819 m 29.95° 27.30° Asphalt 0 ft / 0 m 0 ft / 0 m
11 148 ft / 45 m 11,038 ft / 3,365 m 105.44° 102.79° Asphalt 0 ft / 0 m 900 ft / 274 m
21 148 ft / 45 m 5,966 ft / 1,819 m 209.95° 207.30° Asphalt 0 ft / 0 m 0 ft / 0 m
29 148 ft / 45 m 11,038 ft / 3,365 m 285.46° 282.81° Asphalt 0 ft / 0 m 1,000 ft / 305 m

Popular Alternatives